Temp_Advection
nan nan nan nan nan nan nan nan nan nan nan nan nan nan nan nan nan nan nan nan nan nan nan nan nan nan nan nan nan nan nan nan nan nan nan nan nan nan
nan 0 -0 -0 -0 0 0 0 -0 -0 -1 -1 -0 -0 -1 -0 0 0 0 0 0 0 0 -0 0 0 0 0 0 0 0 0 -0 -0 -0 -0 -0 nan
nan -0 -0 -0 -0 -0 -0 -0 -0 -0 -0 -1 -0 -0 -0 0 0 0 0 0 0 0 0 -0 -0 0 0 0 0 0 0 0 0 -0 -0 -0 -0 nan
nan -0 -0 -0 -0 -0 -0 -0 -0 -0 -0 -0 -0 -0 -0 -0 -0 0 -0 0 0 0 0 1 0 -0 -0 0 -0 -0 0 0 0 -0 -0 0 0 nan
nan -0 -0 -0 -0 -0 -0 -0 -0 -0 -0 -0 -0 -0 -0 -0 -0 -0 0 0 0 0 0 1 1 0 -0 -1 -0 0 -0 -0 -0 0 -0 -0 -0 nan
nan 0 0 0 -0 -0 -0 -0 -0 -0 -0 -0 -1 -0 -0 -0 -0 -0 -0 -0 -0 -0 0 0 0 0 0 0 -0 -1 -1 -1 -0 -0 -0 -0 -0 nan
nan -1 0 0 0 1 0 0 -0 -1 -1 -1 -1 -1 -1 -0 -0 0 0 0 0 0 0 -0 0 0 0 0 0 -0 -0 -1 -1 0 -0 -0 -0 nan
nan -1 -0 0 1 1 0 0 0 -0 -1 -1 -1 -1 -1 -1 -0 -0 -0 -0 -0 0 0 -0 0 -0 -0 -0 -0 -0 -0 0 -0 -0 -0 -0 -0 nan
nan -1 -1 -0 0 0 0 0 1 0 0 0 -0 -1 -1 -0 -0 -0 -0 -0 -0 -0 0 -0 -0 -0 0 -0 0 1 0 0 -0 -0 -1 -0 -0 nan
nan -1 -1 -1 -0 0 0 -0 0 0 -0 -0 -0 -0 -0 -0 -0 -0 -0 -0 -0 -0 0 -0 -0 -0 0 0 -0 -0 0 -0 -0 -0 -0 -0 -1 nan
nan -1 -0 -0 -0 0 0 -0 -0 -0 -0 -0 -0 -0 -0 -0 0 -0 -0 -0 -1 -0 -0 -0 -0 -0 -0 -0 -0 -0 -1 -0 -0 -0 0 -0 -1 nan
nan -0 -0 -0 -0 -0 0 -0 -0 -0 -0 -0 -0 -1 -0 -0 0 0 0 -0 -1 -1 -0 -0 -0 -0 -0 -0 -0 0 0 -0 -0 -0 -0 0 -0 nan
nan -1 -1 -0 0 0 0 0 0 -0 -0 -0 -0 -1 -0 -0 -0 -0 -0 -0 -0 -1 -0 0 -0 -0 -0 -0 -0 -0 -0 -0 -0 -0 -0 0 -0 nan
nan -1 -0 -0 -0 -0 0 0 0 -0 -0 -0 -0 -0 -0 -0 -0 -0 -0 -0 0 -0 0 0 -0 -0 -0 -0 -0 -0 -0 0 0 -0 -0 0 -0 nan
nan -0 -0 -0 -0 -0 -0 -0 -0 -0 -0 -0 -0 -0 -0 -0 -0 -0 -0 -0 0 0 0 0 -0 -1 -0 -0 -0 -0 -0 -0 0 -0 0 0 -0 nan
nan -0 -0 -0 -0 -0 -0 -0 -0 -0 -0 -0 -0 -0 -0 -0 -0 -0 -0 0 -0 -0 0 0 0 0 -0 -0 -0 -0 -0 -0 -0 -0 -0 -0 -0 nan
nan -0 -0 -0 -0 -0 -0 -0 -0 -0 -0 -0 -0 -0 -0 -0 -0 -0 -0 -0 -0 -0 -0 0 0 0 0 -0 -0 -0 -0 -0 -0 -0 -0 -0 -0 nan
nan -0 -0 -0 -0 -0 -0 -0 -0 -0 -0 -0 -0 -0 -0 -0 -0 -0 -0 0 -0 -0 -0 0 0 0 -0 -0 -0 -0 -0 -0 -0 -0 -0 0 0 nan
nan -0 -0 -0 -0 -0 -0 -0 -0 -0 -0 -0 -0 -0 -0 -0 -0 -0 -0 -0 -0 -0 -0 0 0 -0 -0 -0 -0 0 0 0 -0 -0 -0 -0 0 nan
nan -0 -0 -0 -0 -0 -0 -0 -0 -0 -0 -0 -0 -0 -0 -0 -0 -0 -0 -0 -0 -0 -0 -0 -0 -0 -0 -0 -0 0 0 0 0 -0 -0 -0 0 nan
nan -0 -0 -0 -0 -0 -0 -0 -0 -0 -0 -0 -0 -0 0 -0 -0 -0 -0 -0 -0 -0 -0 -0 -0 -0 -0 -0 -0 -0 -0 -0 0 0 -0 -0 0 nan
nan -0 -0 -0 -0 -0 -0 -0 -0 -0 -0 -0 -0 -0 -0 -0 -0 -0 -0 -0 -0 -0 -0 -0 -0 -0 -0 -0 -0 0 -0 -0 -0 -0 -0 -0 -0 nan
nan nan nan nan nan nan nan nan nan nan nan nan nan nan nan nan nan nan nan nan nan nan nan nan nan nan nan nan nan nan nan nan nan nan nan nan nan nan
Wind_Speed
19 15 14 14 15 12 12 11 11 12 18 15 14 15 16 16 17 16 14 17 18 19 23 25 24 23 26 26 26 26 26 27 26 27 27 26 29 33
15 14 14 13 13 16 16 15 15 14 19 18 19 19 18 16 16 16 16 17 18 19 21 24 26 25 24 26 28 29 29 28 27 27 27 26 26 27
18 18 18 18 18 19 19 20 21 21 24 24 20 19 19 20 21 20 20 20 21 25 24 23 27 32 28 29 28 29 29 29 29 28 28 28 27 26
19 21 22 22 22 21 21 22 22 22 23 26 23 23 22 21 21 22 22 21 22 22 24 25 25 27 30 36 34 33 33 31 30 29 29 30 27 26
23 24 24 24 23 22 21 21 21 21 22 24 25 24 24 23 23 23 23 24 24 23 24 26 24 23 29 32 35 39 37 35 36 35 32 30 30 28
24 24 23 23 23 22 21 21 21 22 23 25 27 27 26 25 25 26 26 25 25 23 23 25 27 26 24 26 29 33 37 40 38 37 38 38 35 33
25 26 26 25 26 29 29 29 25 24 24 26 28 28 27 25 25 24 25 23 23 21 22 24 23 25 29 27 28 32 33 36 40 43 41 40 39 39
26 26 27 27 26 25 23 27 31 25 24 26 28 28 26 24 22 22 22 22 23 23 23 25 24 25 24 22 19 26 25 27 28 38 42 43 42 40
26 26 26 26 26 25 25 26 23 24 25 25 28 28 27 25 23 23 23 22 22 19 19 22 19 21 22 24 29 27 19 24 26 31 32 40 44 44
25 25 25 25 25 25 21 22 24 23 22 22 24 25 24 23 23 25 25 25 24 21 20 25 23 24 24 25 26 32 30 29 29 30 35 38 39 41
23 22 23 24 25 28 25 23 23 23 21 24 26 28 29 29 29 26 25 22 24 24 23 27 29 28 25 29 29 30 31 32 35 37 39 39 38 37
22 22 23 23 23 21 22 23 23 21 20 23 22 22 20 23 24 29 28 30 30 29 22 23 25 24 25 24 25 25 26 27 32 32 35 33 31 29
24 23 21 21 18 17 20 23 24 26 26 23 22 22 22 24 25 23 27 28 31 34 28 23 21 18 23 25 24 22 15 16 20 21 28 33 35 34
22 20 19 19 24 26 24 19 19 20 17 14 16 16 17 16 18 21 22 26 29 31 26 25 28 23 21 19 18 18 18 20 19 18 19 23 26 33
18 21 19 19 20 11 12 14 9 7 11 12 12 13 13 14 15 18 21 23 25 26 26 24 25 28 22 20 18 19 18 16 17 17 16 16 21 23
18 12 16 13 9 11 11 8 7 8 9 9 11 11 10 9 12 14 15 15 18 21 21 22 24 26 27 24 22 22 19 17 11 12 15 14 15 18
13 13 12 12 11 11 10 9 7 8 8 9 9 10 10 8 9 10 9 10 12 13 14 16 16 19 24 24 24 23 20 20 17 16 15 14 14 18
10 12 13 13 14 14 13 12 11 11 10 10 9 9 10 7 9 8 8 6 8 9 10 11 12 12 13 17 20 21 19 19 17 15 16 18 15 14
11 12 13 15 15 15 15 14 13 14 13 10 9 10 10 8 8 6 6 6 7 5 5 6 7 10 13 15 14 17 21 18 19 19 19 15 17 13
11 13 14 14 13 13 14 15 15 14 13 12 11 9 9 8 9 8 7 8 6 7 5 4 5 8 6 5 2 6 13 14 15 14 15 11 15 15
12 12 12 12 13 13 13 13 15 15 13 11 12 12 10 9 9 9 8 8 6 6 6 5 9 8 10 12 11 12 13 10 10 12 9 8 10 11
11 11 11 11 12 12 12 12 14 14 15 13 12 13 12 10 10 9 10 9 7 6 5 8 8 6 4 4 6 5 8 10 4 5 7 11 8 4
10 10 10 10 11 11 11 12 13 12 13 14 12 12 12 12 10 10 9 8 8 8 7 6 5 6 6 5 4 4 8 3 2 4 10 5 8 12
Wind_Direction
290 294 292 295 297 291 290 285 280 288 284 279 277 275 272 252 253 251 244 256 250 243 243 237 235 237 242 244 251 255 252 248 249 253 257 254 250 245
283 279 280 281 281 283 277 272 265 263 272 278 280 272 262 258 254 251 244 249 261 254 248 245 242 235 236 234 235 243 247 250 250 251 253 257 258 256
287 284 283 283 281 279 276 272 269 268 270 276 274 270 267 262 260 258 255 255 256 264 264 258 252 245 241 239 234 230 234 242 249 251 251 253 259 261
289 290 288 286 285 283 277 272 269 268 271 277 275 275 272 268 265 262 260 259 260 261 266 263 261 258 252 247 246 243 240 238 240 247 249 249 253 257
289 289 288 288 285 281 277 276 273 272 273 273 274 271 270 268 268 265 263 263 259 257 263 263 258 253 257 259 252 250 248 247 246 246 249 250 253 254
289 284 283 282 281 281 277 276 276 277 274 273 272 271 268 266 265 267 268 265 265 262 260 258 260 262 260 260 262 257 251 247 245 247 248 250 252 255
290 286 284 280 274 274 278 278 276 275 272 272 272 271 269 267 264 265 268 269 267 265 264 260 261 261 261 262 263 266 260 253 246 244 247 248 248 250
292 287 284 283 283 284 283 282 281 274 270 269 271 274 274 276 276 275 277 276 274 264 267 269 263 263 258 255 265 268 269 267 262 250 246 247 248 248
294 290 286 280 281 282 280 280 275 277 276 266 265 263 265 265 268 269 268 268 267 266 264 270 263 258 254 255 251 256 249 239 250 256 251 248 250 251
293 289 287 284 282 283 283 279 277 274 270 269 265 267 266 266 262 262 266 268 266 264 260 265 258 262 260 260 259 258 257 250 245 246 250 252 253 252
297 292 289 286 281 276 281 278 278 276 274 273 270 267 266 264 262 263 260 267 267 262 258 260 262 264 266 266 267 266 257 259 255 250 252 255 255 254
305 299 294 291 285 284 281 280 279 278 281 276 275 276 275 263 261 252 253 256 259 264 263 261 260 260 267 270 274 275 271 263 255 253 252 249 244 249
306 303 300 289 283 273 273 276 278 276 274 278 275 272 267 261 257 262 253 254 255 259 260 262 270 254 257 262 270 279 273 266 265 257 250 249 247 244
308 304 296 290 296 294 291 285 277 278 283 287 284 278 272 268 259 256 257 260 260 260 264 257 255 254 259 264 270 274 268 269 268 255 257 260 250 245
311 302 309 306 314 319 308 303 304 309 293 289 286 284 280 274 266 265 261 257 255 255 258 257 252 257 251 255 268 271 271 265 258 259 265 266 250 253
325 331 317 326 338 341 331 319 310 297 314 316 304 302 307 301 295 293 284 273 267 263 260 260 255 253 256 254 259 264 263 270 279 266 264 250 239 235
346 333 341 353 2 355 352 351 343 327 326 328 331 325 322 315 315 302 300 284 269 265 260 258 259 254 254 255 250 251 262 266 265 265 257 258 252 246
352 352 357 4 6 1 1 2 0 352 340 338 341 334 329 328 343 339 310 321 294 288 266 257 247 242 245 247 244 249 252 264 283 287 264 254 251 255
358 358 1 5 3 360 359 0 357 356 358 350 342 341 340 353 351 342 340 334 309 303 281 276 252 237 237 239 244 237 244 254 262 265 268 264 242 250
358 1 357 357 360 359 354 358 360 357 0 3 357 353 356 11 354 359 2 354 344 348 324 291 266 254 269 288 336 241 236 254 267 263 259 262 245 258
357 355 354 354 355 357 358 1 2 356 1 12 8 6 11 12 1 4 9 5 9 360 8 336 300 284 269 271 278 278 285 298 279 257 247 248 253 278
351 351 353 351 352 356 0 4 5 360 1 8 21 17 13 11 7 1 4 10 0 352 339 338 345 340 324 286 302 294 302 309 322 302 260 246 235 209
352 353 354 354 352 357 358 4 5 1 3 3 15 20 15 11 15 4 6 3 352 353 347 340 338 335 326 303 266 276 290 318 296 336 318 302 256 250
Height
1468 1465 1463 1460 1457 1455 1453 1451 1449 1446 1442 1441 1441 1441 1439 1441 1442 1440 1441 1442 1442 1443 1446 1447 1448 1449 1452 1454 1456 1458 1459 1461 1463 1465 1466 1468 1470 1473
1464 1462 1460 1457 1456 1454 1451 1448 1446 1444 1441 1440 1437 1435 1436 1437 1438 1436 1438 1439 1438 1439 1441 1442 1443 1444 1446 1449 1451 1452 1454 1455 1456 1458 1460 1461 1464 1466
1460 1457 1455 1453 1451 1450 1448 1446 1444 1441 1437 1435 1434 1434 1433 1432 1432 1433 1434 1434 1434 1433 1433 1436 1437 1438 1439 1442 1444 1446 1448 1449 1450 1452 1454 1456 1457 1459
1455 1453 1450 1448 1445 1444 1442 1440 1439 1437 1434 1431 1430 1429 1428 1428 1428 1427 1428 1428 1428 1429 1427 1426 1429 1431 1433 1435 1437 1439 1440 1442 1444 1445 1447 1448 1450 1451
1450 1448 1445 1443 1440 1438 1437 1435 1433 1432 1430 1428 1425 1425 1424 1423 1422 1422 1422 1422 1423 1423 1422 1422 1423 1424 1425 1426 1428 1430 1431 1434 1435 1438 1440 1442 1443 1445
1444 1441 1439 1437 1435 1433 1431 1430 1429 1427 1425 1423 1420 1419 1418 1418 1417 1417 1416 1416 1416 1416 1416 1417 1416 1415 1417 1418 1419 1420 1421 1423 1426 1429 1431 1434 1436 1438
1438 1435 1432 1430 1427 1426 1426 1424 1423 1422 1420 1417 1415 1413 1412 1411 1410 1410 1409 1409 1408 1409 1409 1409 1410 1410 1409 1410 1411 1411 1412 1414 1416 1420 1422 1425 1427 1430
1431 1428 1425 1423 1421 1419 1416 1415 1416 1414 1413 1411 1408 1406 1405 1404 1404 1403 1403 1402 1401 1403 1402 1401 1403 1401 1402 1403 1405 1403 1404 1405 1406 1409 1412 1414 1416 1420
1424 1421 1418 1415 1414 1412 1410 1408 1406 1405 1404 1403 1400 1399 1400 1400 1400 1399 1398 1398 1397 1398 1398 1395 1397 1396 1396 1396 1396 1396 1396 1397 1400 1401 1402 1404 1406 1409
1418 1415 1411 1408 1407 1404 1401 1400 1400 1398 1397 1396 1393 1392 1392 1393 1393 1392 1391 1390 1390 1390 1391 1389 1390 1390 1391 1391 1390 1389 1389 1390 1391 1393 1394 1395 1396 1399
1411 1408 1404 1401 1399 1396 1395 1393 1392 1391 1390 1388 1387 1386 1385 1385 1386 1386 1384 1385 1382 1383 1385 1384 1383 1383 1384 1383 1383 1383 1382 1382 1383 1385 1386 1388 1390 1391
1405 1402 1398 1395 1392 1391 1389 1387 1386 1385 1384 1382 1380 1378 1377 1376 1377 1377 1378 1378 1378 1376 1378 1379 1378 1378 1376 1375 1375 1373 1373 1373 1375 1376 1379 1381 1383 1384
1400 1396 1393 1387 1385 1384 1383 1381 1380 1378 1376 1375 1373 1371 1370 1370 1370 1369 1370 1371 1370 1369 1372 1374 1371 1372 1372 1371 1370 1369 1368 1369 1369 1369 1371 1373 1375 1378
1395 1391 1387 1384 1381 1378 1376 1374 1372 1371 1370 1369 1367 1366 1365 1364 1364 1364 1364 1363 1363 1363 1366 1366 1366 1367 1367 1366 1365 1365 1364 1364 1364 1364 1365 1366 1367 1370
1391 1387 1383 1379 1376 1373 1372 1370 1368 1368 1367 1366 1364 1362 1361 1360 1359 1359 1358 1357 1357 1357 1358 1359 1360 1361 1361 1361 1361 1361 1361 1360 1360 1360 1360 1360 1361 1362
1387 1384 1381 1377 1375 1373 1370 1368 1367 1366 1364 1363 1361 1359 1358 1356 1355 1354 1352 1352 1351 1351 1352 1353 1354 1355 1355 1357 1358 1357 1358 1358 1356 1356 1356 1357 1357 1358
1385 1383 1380 1376 1374 1373 1370 1368 1366 1364 1363 1361 1359 1357 1356 1354 1353 1351 1350 1349 1348 1347 1347 1347 1348 1349 1350 1351 1352 1353 1353 1353 1353 1353 1353 1353 1353 1355
1386 1383 1380 1377 1375 1373 1370 1367 1365 1363 1361 1360 1358 1357 1355 1353 1351 1350 1348 1347 1346 1345 1344 1344 1344 1345 1346 1346 1347 1347 1349 1349 1349 1349 1348 1349 1350 1351
1387 1384 1381 1378 1376 1373 1370 1368 1366 1364 1361 1359 1358 1356 1354 1352 1351 1349 1347 1346 1344 1343 1343 1342 1342 1342 1342 1341 1341 1342 1343 1345 1345 1344 1345 1344 1344 1347
1387 1385 1383 1380 1378 1375 1372 1370 1367 1365 1362 1360 1358 1356 1354 1352 1351 1348 1347 1345 1343 1343 1342 1341 1341 1340 1339 1339 1338 1338 1339 1340 1340 1340 1340 1340 1340 1341
1388 1387 1384 1381 1379 1376 1374 1371 1369 1366 1363 1361 1358 1356 1354 1352 1351 1349 1347 1345 1344 1343 1342 1341 1339 1338 1338 1338 1338 1336 1335 1336 1336 1336 1336 1337 1337 1338
1390 1387 1385 1383 1380 1377 1375 1372 1370 1367 1364 1361 1359 1358 1355 1353 1351 1349 1347 1346 1344 1343 1342 1341 1339 1338 1338 1337 1337 1336 1335 1333 1333 1333 1333 1334 1335 1335
1390 1387 1385 1383 1380 1377 1375 1372 1370 1368 1365 1362 1360 1358 1356 1354 1352 1350 1348 1346 1345 1343 1342 1340 1339 1338 1337 1336 1336 1335 1334 1334 1333 1333 1331 1331 1331 1332